Belle Isle Bank: Past 24 Hour Conditions

 

Îles de la Madeleine Airport

07:00 AM ADT 20 August 2014
This table is a summary of hourly weather conditions for the past 24 hours.
Date / Time
(ADT)
Wind(knots) Conditions Visibility(km) Pressure(kPa) Air tempC) Relative humidity(%) Dew pointC) Humidex
20 August 2014
7:00 NNW 20 gust 26 Mostly Cloudy 16 100.9 16 93 15 *
6:00 NW 21 gust 29 Light Rainshower 3 100.8 16 93 15 *
5:00 WNW 22 gust 27 N/A N/A 100.6 16 96 15 *
4:00 WNW 23 N/A N/A 100.6 16 93 15 *
3:00 WNW 20 gust 26 N/A N/A 100.5 16 93 15 *
2:00 WNW 19 gust 24 N/A N/A 100.5 16 96 15 *
1:00 W 15 N/A N/A 100.5 15 96 15 *
0:00 WNW 15 gust 20 N/A N/A 100.5 15 95 15 *
19 August 2014
23:00 NW 13 gust 21 Light Rainshower 24 100.5 16 92 15 *
22:00 WNW 16 gust 23 Light Rainshower 24 100.5 17 95 16 *
21:00 WNW 15 gust 21 Light Rainshower 24 100.5 17 94 16 *
20:00 WNW 14 gust 19 Light Rainshower 10 100.5 17 95 16 *
19:00 NW 12 gust 18 Light Rainshower 11 100.5 18 93 16 *
18:00 WNW 12 gust 18 Mostly Cloudy 32 100.4 18 90 17 *
17:00 WNW 11 gust 18 Mostly Cloudy 32 100.4 19 88 17 *
16:00 WNW 11 gust 17 Partly Cloudy 32 100.3 20 80 17 25
15:00 WNW 14 Mostly Cloudy 32 100.3 20 81 17 *
14:00 WNW 13 Mostly Cloudy 32 100.3 19 85 17 *
13:00 NW 10 gust 16 Partly Cloudy 32 100.3 20 80 17 26
12:00 NW 10 Partly Cloudy 32 100.3 20 83 17 *
11:00 NNW 11 Mostly Cloudy 32 100.2 19 88 17 *
10:00 NNW 11 Partly Cloudy 32 100.2 20 82 17 *
9:00 NNW 11 Partly Cloudy 32 100.1 18 89 17 *
8:00 NNW 11 Partly Cloudy 32 100.1 18 93 17 *
7:00 N 6 Partly Cloudy 32 100.1 17 92 16 *
 
Map of Atlantic - Newfoundland marine weather areas Southwestern Grand Banks - 44138 Banquereau - 44139 Tail of the Bank - 44140 Nickerson Bank - 44251 Northeast Burgeo Bank - 44255 Blanc-Sablon Airport Cap Whittle Chevery Natashquan Airport Heath Point Miscou Island Grand Étang Ingonish Beach North Mountain St.Paul Island J.A. Douglas McCurdy Sydney Airport Charlottetown Airport East Point North Cape Argentia Bonavista Burgeo Cape Race Corner Brook Daniel's Harbour Englee Ferolle Point La Scie Port aux Basques Rocky Harbour Sagona Island St. Anthony Airport St. John's Int'l Airport St. Lawrence Stephenville Airport Twillingate Winterland Wreckhouse Cartwright Airport Mary's Harbour Grates Cove Pool's Island Marticot Island Long Pond Îles de la Madeleine Airport
Legend: buoyBuoy land stationLand Station